Back to catalog

STARLINK-32653

AliveCommunicationsVLEO
NORAD 62199·PAYLOAD·🇺🇸 United States

Launched Dec 4, 2024 from Cape Canaveral Space Force Station

Loading…

Next Passes (next 24 hours)

TLE

FreshSource: CelesTrak SupGP

Epoch: Sep 14, 2026, 22:25 UTC

1 62199C 24229H   26257.93451389  .00034031  00000+0  12326-2 0  2573
2 62199  42.9995 275.0854 0001414 267.1708  63.7948 15.27560732    15

Track STARLINK-32653 in real time with AllMySat

Download on the App Store